New River MCAS, NC

2:15 AM EDT on September 26, 2017 (GMT -0400)
New River Marine Corps Air Station

Weather History for KNCA - May, 2013

Change the Weather History Date:

Wednesday, May 15, 2013

  Actual Average Record
Temperature  
Mean Temperature 70 °F -  
Max Temperature 84 °F 78 °F 86 °F (2017)
Min Temperature 57 °F 57 °F 48 °F (1998)
Cooling Degree Days 6    
Growing Degree Days 20 (Base 50)    
Moisture  
Dew Point 55 °F    
Average Humidity 60    
Maximum Humidity 81    
Minimum Humidity 40    
Precipitation  
Precipitation 0.00 in - - ()
Sea Level Pressure  
Sea Level Pressure 30.06 in    
Wind  
Wind Speed 8 mph (SSW)    
Max Wind Speed 14 mph    
Max Gust Speed 23 mph    
Visibility 10 miles    
Events      
Averages and records for this station are not official NWS values.
T = Trace of Precipitation, MM = Missing Value Source: NWS Daily Summary

Daily Weather History Graph

Daily Weather History Graph

Search for Another Location

Airport or City:

Trip Planner

Search our weather history database for the weather conditions in past years. The results will help you decide how hot, cold, wet, or windy it might be!

Date:

Astronomy

May. 15, 2013 Rise Set
Actual Time 6:06 AM EDT 8:06 PM EDT
Civil Twilight 5:38 AM EDT 8:34 PM EDT
Nautical Twilight 5:04 AM EDT 9:08 PM EDT
Astronomical Twilight 4:28 AM EDT 9:44 PM EDT
Moon 10:38 AM EDT (5/15) No Moon Set
Length of Visible Light 14h 55m
Length of Day
13h 59m
Waxing Crescent, 26% of the Moon is Illuminated
May 15
Waxing Crescent
May 18
First Quarter
May 25
Full
May 31
Last Quarter
Jun 8
New

Hourly Weather History & Observations

Time (EDT) Temp. Heat Index Dew Point Humidity Pressure Visibility Wind Dir Wind Speed Gust Speed Precip Events Conditions
12:56 AM 59.0 °F - 46.0 °F 62% 30.16 in 10.0 mi SSW 4.6 mph - N/A   Clear
1:56 AM 59.0 °F - 46.9 °F 64% 30.15 in 10.0 mi SSW 4.6 mph - N/A   Scattered Clouds
2:56 AM 59.0 °F - 48.9 °F 69% 30.14 in 10.0 mi SSW 5.8 mph - N/A   Clear
3:56 AM 57.9 °F - 50.0 °F 75% 30.15 in 10.0 mi South 3.5 mph - N/A   Clear
4:56 AM 59.0 °F - 53.1 °F 81% 30.14 in 10.0 mi SSW 5.8 mph - N/A   Clear
5:56 AM 61.0 °F - 54.0 °F 78% 30.14 in 10.0 mi SSW 6.9 mph - N/A   Clear
7:56 AM 66.0 °F - 55.0 °F 68% 30.14 in 10.0 mi SW 9.2 mph - N/A   Clear
8:56 AM 70.0 °F - 52.0 °F 53% 30.13 in 10.0 mi SW 13.8 mph 20.7 mph N/A   Clear
9:56 AM 73.9 °F - 51.1 °F 45% 30.11 in 10.0 mi WSW 11.5 mph 23.0 mph N/A   Clear
10:56 AM 77.0 °F - 52.0 °F 42% 30.09 in 10.0 mi SW 11.5 mph - N/A   Clear
11:56 AM 80.1 °F 80.1 °F 55.0 °F 42% 30.08 in 10.0 mi WSW 12.7 mph 17.3 mph N/A   Clear
12:56 PM 82.0 °F 81.6 °F 55.9 °F 41% 30.06 in 10.0 mi WSW 9.2 mph - N/A   Clear
1:56 PM 84.0 °F 83.3 °F 57.0 °F 40% 30.04 in 10.0 mi WSW 10.4 mph - N/A   Clear
2:56 PM 82.9 °F 83.3 °F 61.0 °F 47% 30.01 in 10.0 mi SSE 13.8 mph 19.6 mph N/A   Clear
4:56 PM 81.0 °F 81.7 °F 61.0 °F 50% 29.98 in 10.0 mi South 12.7 mph 18.4 mph N/A   Clear
5:56 PM 80.1 °F 81.1 °F 61.0 °F 52% 29.97 in 10.0 mi South 10.4 mph - N/A   Clear
6:56 PM 78.1 °F - 61.0 °F 56% 29.97 in 10.0 mi SSW 10.4 mph 16.1 mph N/A   Clear
7:56 PM 73.0 °F - 61.0 °F 66% 29.97 in 10.0 mi South 6.9 mph - N/A   Clear
8:56 PM 70.0 °F - 60.1 °F 71% 29.99 in 10.0 mi SSW 5.8 mph - N/A   Clear
9:56 PM 69.1 °F - 59.0 °F 70% 30.00 in 10.0 mi SSW 6.9 mph - N/A   Clear
10:56 PM 68.0 °F - 59.0 °F 73% 29.99 in 10.0 mi SW 11.5 mph 17.3 mph N/A   Clear
11:56 PM 68.0 °F - 59.0 °F 73% 29.98 in 10.0 mi SW 9.2 mph - N/A   Clear